This is the latest recevied weather packets stored in our database for station/object JA6YCL-13. If no packets are shown the sender has not sent any weather packets the latest 1 day(s).
| Time | Temp. | Humidity | Pressure | Rain* | Wind** | Luminosity | Snow |
|---|---|---|---|---|---|---|---|
| 1777977153 | 17.22° C | 58% | 1019.2 hPa | 0 mm | 1.79 m/s, 141° | - | - |
| 1777976363 | 17.22° C | 56% | 1019.1 hPa | 0 mm | 1.34 m/s, 157° | - | - |
| 1777975487 | 17.22° C | 55% | 1018.9 hPa | 0 mm | 1.34 m/s, 150° | - | - |
| 1777974693 | 17.78° C | 54% | 1018.9 hPa | 0 mm | 2.24 m/s, 130° | - | - |
| 1777973950 | 17.78° C | 53% | 1018.9 hPa | 0 mm | 0.89 m/s, 117° | - | - |
| 1777973178 | 18.33° C | 51% | 1018.7 hPa | 0 mm | 2.24 m/s, 96° | - | - |
| 1777972433 | 18.33° C | 49% | 1018.9 hPa | 0 mm | 1.79 m/s, 115° | - | - |
| 1777971556 | 18.89° C | 46% | 1018.5 hPa | 0 mm | 2.24 m/s, 109° | - | - |
| 1777970743 | 18.89° C | 46% | 1018.5 hPa | 0 mm | 2.24 m/s, 118° | - | - |
| 1777970003 | 19.44° C | 45% | 1018.3 hPa | 0 mm | 2.68 m/s, 145° | - | - |
| 1777969288 | 19.44° C | 44% | 1018.1 hPa | 0 mm | 1.79 m/s, 136° | - | - |
| 1777968478 | 20° C | 41% | 1017.9 hPa | 0 mm | 3.58 m/s, 121° | - | - |
| 1777967583 | 20.56° C | 39% | 1017.9 hPa | 0 mm | 2.68 m/s, 119° | - | - |
| 1777966783 | 20.56° C | 38% | 1017.8 hPa | 0 mm | 3.13 m/s, 135° | - | - |
| 1777965979 | 20.56° C | 38% | 1017.7 hPa | 0 mm | 3.13 m/s, 123° | - | - |
| 1777965188 | 21.67° C | 37% | 1017.6 hPa | 0 mm | 3.13 m/s, 115° | - | - |
| 1777964356 | 22.22° C | 36% | 1017.6 hPa | 0 mm | 3.58 m/s, 117° | - | - |
| 1777963492 | 23.89° C | 34% | 1017.5 hPa | 0 mm | 1.79 m/s, 150° | - | - |
| 1777962609 | 23.33° C | 33% | 1017.5 hPa | 0 mm | 1.79 m/s, 163° | - | - |
| 1777961877 | 22.78° C | 31% | 1017.4 hPa | 0 mm | 2.68 m/s, 101° | - | - |
| 1777961112 | 22.78° C | 29% | 1017.7 hPa | 0 mm | 2.68 m/s, 107° | - | - |
| 1777960283 | 23.33° C | 28% | 1017.6 hPa | 0 mm | 3.13 m/s, 124° | - | - |
| 1777959450 | 23.33° C | 27% | 1017.6 hPa | 0 mm | 1.79 m/s, 106° | - | - |
| 1777958590 | 22.78° C | 25% | 1017.8 hPa | 0 mm | 3.13 m/s, 114° | - | - |
| 1777957733 | 22.78° C | 24% | 1018 hPa | 0 mm | 2.24 m/s, 110° | - | - |
* Rain latest hour (hover to see other rain measurements)
** Current wind speed in m/s (hover to see current wind gust speed)